DELTA 1 DEB, 14563

Orbit data source: Space-Track

DELTA 1 DEB, 14563 is space debris in LEO originally from a launch on Thu, 14 Jul 1977 UTC launched from the Air Force Eastern Test Range (AFETR). Debris objects in space refer to the collection of defunct objects orbiting the Earth. Examples of debris include non-operational satellites, rocket bodies, and fragments generated from explosions, collisions, or faulty payload assembly.

Loading next visibility...
Identifier
14563, 1977-065FR
Orbit
LEO
Country
Flag of USUS
Related business
Manufacturer
Unknown
Mission
Spacecraft
Bus & Motor
Unknown
Mass
Unknown
Launch date (UTC)
1977-07-14 (48 years ago)
Launch vehicle
Unknown
Launch site
Air Force Eastern Test Range (AFETR)
Object type
Payload
Rocket body
Debris
Shape & HBR
Unknown shape, 0.1 m
Radar Cross Section
Small (<0.1 m²)

Expand to show TLE details & history
Last TLE update: 15 hours ago

TLE from 15 hours ago
0 DELTA 1 DEB
1 14563U 77065FR  25348.91305503  .00002632  00000-0  36124-3 0  9994
2 14563  29.1733 253.1216 0432763 279.7687  75.4298 14.27181988761151
Epoch: 2025-12-14T21:54Z
TLE epoch observation values (Epoch: 2025-12-14T21:54:47.954Z)
Latitude
-0.00003°
Longitude
-159.39742°
Altitude
734.204 km
Speed
7.524 km/s
True Right ascension
16h 52m 29s
True Declination
0° 00' 00"
Sunlit
Object was in daylight at epoch
Visualization orbit readout
Latitude
Unknown
Longitude
Unknown
Altitude
Unknown
Speed
Unknown
Apparent Right ascension
Unknown
Apparent Declination
Unknown
Sunlit
N/A
Visualization observer readout
Local Sidereal Time
11:54:37
Azimuth
Unknown
Elevation
Unknown
Doppler factor
Unknown
Orbital elements
Apogee altitude
1,115.996 km
Perigee altitude
494.266 km
Semi-major axis
7,183.268 km
Eccentricity
0.04328
Inclination
29.1733°
RAAN
253.1216°
Arg. of periapsis
279.7687°
True anomaly
80.28975°
Mean anomaly
75.4298°
Eccentric anomaly
77.85384°
Mean motion
3.565 °/min
Orbital period
100.98 mins
BSTAR
0.00036124
Loading maneuver chart data...
Computing Atmospheric mass density...
Loading historical data...
Loading historical data...
Loading historical data...
Loading historical data...
Loading historical data...
Loading historical data...
Loading historical data...

Documentation

Showing up to 5 results
|